Regional Weather Roundup
Issued by NWS

Home | Current Version | Previous Version | Graphics & Text | Print | Product List | Glossary On
Versions: 1 2 3 4 5 6 7 8 9 10 11 12 13 14 15 16 17 18 19 20 21 22 23 24 25 26 27 28 29 30 31 32 33 34 35 36 37 38 39 40 41 42 43 44 45 46 47 48 49 50
000
ASUS45 KBOI 031510
RWRID

IDAHO REGIONAL WEATHER ROUNDUP
NATIONAL WEATHER SERVICE BOISE ID
900 AM MDT MON AUG 03 2015

NOTE: "FAIR" INDICATES FEW OR NO CLOUDS BELOW 12000 FEET
WITH NO SIGNIFICANT WEATHER AND/OR OBSTRUCTIONS TO VISIBILITY

IDZ012-014-031600-
SOUTHWEST IDAHO


CITY           SKY/WX    TMP DP  RH WIND       PRES   REMARKS
BOISE          CLOUDY    79  48  33 N5        29.90R
CALDWELL       CLOUDY    79  48  34 CALM      29.88S
MOUNTAIN HOME  CLOUDY    77  48  36 S5        29.92R
$$

IDZ016-017-031600-
SOUTHCENTRAL IDAHO


CITY           SKY/WX    TMP DP  RH WIND       PRES   REMARKS
BURLEY         CLOUDY    75  48  38 W14G23    29.96F
JEROME         CLOUDY    71  49  45 S7        29.98R
TWIN FALLS     CLOUDY    79  45  29 SW13      29.97R
$$

IDZ019>023-031600-
SOUTHEAST IDAHO


CITY           SKY/WX    TMP DP  RH WIND       PRES   REMARKS
IDAHO FALLS    CLOUDY    66  52  60 CALM      30.03R
POCATELLO      SUNNY     74  50  42 S12       30.02R
REXBURG        CLOUDY    65  48  54 NE3       30.04S
$$

IDZ006-010-011-018-031-032-031600-
CENTRAL IDAHO MOUNTAINS


CITY           SKY/WX    TMP DP  RH WIND       PRES   REMARKS
MCCALL         CLOUDY    64  42  44 CALM      30.00R
HAILEY         CLOUDY    61  45  55 W6        30.05S
STANLEY          N/A     54  38  54 CALM      30.12S
SALMON         MOSUNNY   61  45  55 CALM      29.95S
CHALLIS        PTSUNNY   62  49  62 CALM      30.01F
$$

IDZ002-004-006-007-026-031600-
NORTHERN IDAHO


CITY           SKY/WX    TMP DP  RH WIND       PRES   REMARKS
LEWISTON       PTSUNNY   73  39  29 N3        29.80S
LOWELL           N/A     63  50  62 N3        29.86F
COEUR D`ALENE  MOSUNNY   70  46  43 N5        29.83S
MULLAN PASS    MOSUNNY   72  26  18 CALM      30.06S
$$


USA.gov is the U.S. government's official web portal to all federal, state and local government web resources and services.